Overview Statistics Trail Chart Weather Telemetry Raw packets
 

This is the latest recevied weather packets stored in our database for station/object KW4UJ. If no packets are shown the sender has not sent any weather packets the latest 10 day(s).

<< 35 36 37 38 39 40 41 >>
Time Temp. Humidity Pressure Rain* Wind** Luminosity Snow
1788393565 23.89° C 91% 1017.3 hPa 0 mm - 0 W/m² -
1788393261 23.89° C 91% 1017.5 hPa 0 mm - 0 W/m² -
1788392960 23.89° C 91% 1017.4 hPa 0 mm - 1 W/m² -
1788392655 23.89° C 91% 1017.2 hPa 0 mm - 2 W/m² -
1788392355 23.89° C 91% 1017.3 hPa 0 mm - 4 W/m² -
1788392049 23.89° C 91% 1017.2 hPa 0 mm - 4 W/m² -
1788391748 23.89° C 91% 1017.1 hPa 0 mm - 5 W/m² -
1788391443 24.44° C 91% 1017.1 hPa 0 mm - 7 W/m² -
1788391143 24.44° C 90% 1017.3 hPa 0 mm - 9 W/m² -
1788390838 24.44° C 90% 1017.3 hPa 0 mm - 11 W/m² -
1788390532 24.44° C 90% 1017.5 hPa 0 mm - 12 W/m² -
1788390232 24.44° C 90% 1017.6 hPa 0 mm - 11 W/m² -
1788389926 24.44° C 89% 1017.4 hPa 0 mm - 10 W/m² -
1788389621 24.44° C 88% 1017.4 hPa 0 mm - 12 W/m² -
1788389319 25° C 88% 1017.5 hPa 0 mm - 15 W/m² -
1788389015 25° C 87% 1017.6 hPa 0 mm - 19 W/m² -
1788388712 25° C 86% 1017.5 hPa 0 mm - 25 W/m² -
1788388412 25° C 86% 1017.7 hPa 0 mm - 34 W/m² -
1788388111 25° C 86% 1017.6 hPa 0 mm - 50 W/m² -
1788387810 25.56° C 85% 1017.6 hPa 0 mm - 68 W/m² -
1788387504 25.56° C 85% 1017.4 hPa 0 mm - 83 W/m² -
1788387203 25.56° C 85% 1017.2 hPa 0 mm - 123 W/m² -
1788386900 25.56° C 85% 1017.3 hPa 0 mm - 142 W/m² -
1788386599 25° C 87% 1017.6 hPa 0 mm - 121 W/m² -
1788386295 25° C 86% 1017.8 hPa 0 mm - 114 W/m² -

* Rain latest hour (hover to see other rain measurements)
** Current wind speed in m/s (hover to see current wind gust speed)